TimeEST,TemperatureF,Dew PointF,Humidity,Sea Level PressureIn,VisibilityMPH,Wind Direction,Wind SpeedMPH,Gust SpeedMPH,PrecipitationIn,Events,Conditions,WindDirDegrees,DateUTC
12:52 AM,33.1,30.0,89,30.18,10.0,Calm,Calm,-,N/A,,Partly Cloudy,0,2012-12-20 05:52:00
1:52 AM,34.0,30.9,89,30.18,10.0,Calm,Calm,-,N/A,,Mostly Cloudy,0,2012-12-20 06:52:00
2:52 AM,35.1,32.0,89,30.20,10.0,Calm,Calm,-,N/A,,Mostly Cloudy,0,2012-12-20 07:52:00
3:52 AM,36.0,33.1,89,30.19,10.0,Calm,Calm,-,N/A,,Mostly Cloudy,0,2012-12-20 08:52:00
4:52 AM,33.8,32.0,93,30.19,10.0,Calm,Calm,-,N/A,,Mostly Cloudy,0,2012-12-20 09:52:00
5:52 AM,34.0,32.0,92,30.20,10.0,Calm,Calm,-,N/A,,Mostly Cloudy,0,2012-12-20 10:52:00
6:52 AM,33.1,30.9,92,30.19,10.0,Calm,Calm,-,N/A,,Mostly Cloudy,0,2012-12-20 11:52:00
7:52 AM,32.0,30.9,96,30.20,7.0,Calm,Calm,-,N/A,,Mostly Cloudy,0,2012-12-20 12:52:00
8:52 AM,36.0,34.0,93,30.18,8.0,Calm,Calm,-,N/A,,Overcast,0,2012-12-20 13:52:00
9:52 AM,42.1,35.1,76,30.15,10.0,SE,5.8,-,N/A,,Mostly Cloudy,140,2012-12-20 14:52:00
10:52 AM,45.0,33.1,63,30.11,10.0,SE,13.8,-,N/A,,Overcast,140,2012-12-20 15:52:00
11:52 AM,46.0,30.9,56,30.10,10.0,South,12.7,-,N/A,,Overcast,180,2012-12-20 16:52:00
12:52 PM,46.0,32.0,58,30.07,10.0,SE,9.2,-,N/A,,Overcast,140,2012-12-20 17:52:00
1:52 PM,45.0,30.9,58,30.04,10.0,SE,12.7,-,N/A,,Overcast,140,2012-12-20 18:52:00
2:52 PM,44.1,33.1,65,29.98,10.0,SE,10.4,-,N/A,,Overcast,140,2012-12-20 19:52:00
3:52 PM,44.1,32.0,63,29.94,10.0,SE,8.1,-,N/A,,Overcast,130,2012-12-20 20:52:00
4:52 PM,44.1,32.0,63,29.89,10.0,East,12.7,19.6,N/A,,Overcast,100,2012-12-20 21:52:00
5:52 PM,44.1,35.1,71,29.87,10.0,SE,10.4,-,0.00,,Overcast,130,2012-12-20 22:52:00
6:52 PM,43.0,37.9,82,29.84,7.0,SE,11.5,-,0.02,Rain,Light Rain,130,2012-12-20 23:52:00
7:52 PM,43.0,39.9,89,29.77,7.0,ESE,10.4,19.6,0.06,Rain,Light Rain,120,2012-12-21 00:52:00
8:52 PM,43.0,41.0,93,29.71,4.0,SE,12.7,21.9,0.11,Rain,Rain,130,2012-12-21 01:52:00
9:09 PM,44.6,41.0,87,29.64,5.0,ESE,19.6,32.2,0.03,Rain,Rain,120,2012-12-21 02:09:00
9:24 PM,44.6,42.8,93,29.63,5.0,ESE,16.1,26.5,0.06,Rain,Light Rain,120,2012-12-21 02:24:00
9:52 PM,45.0,43.0,93,29.59,5.0,ESE,15.0,24.2,0.09,Rain,Light Rain,120,2012-12-21 02:52:00
10:11 PM,46.4,44.6,93,29.55,4.0,ESE,19.6,31.1,0.05,Rain,Light Rain,120,2012-12-21 03:11:00
10:21 PM,46.4,44.6,93,29.53,4.0,SE,15.0,32.2,0.08,Rain,Rain,130,2012-12-21 03:21:00
10:30 PM,46.4,44.6,93,29.51,4.0,ESE,17.3,26.5,0.09,Rain,Light Rain,110,2012-12-21 03:30:00
10:52 PM,46.9,45.0,93,29.49,7.0,ESE,12.7,19.6,0.12,Rain,Light Rain,120,2012-12-21 03:52:00
11:52 PM,51.1,48.9,92,29.39,7.0,SE,13.8,25.3,0.09,Rain,Light Rain,130,2012-12-21 04:52:00